Regional Weather Roundup
Issued by NWS

Home | Current Version | Previous Version | Graphics & Text | Print | Product List | Glossary On
Versions: 1 2 3 4 5 6 7 8 9 10 11 12 13 14 15 16 17 18 19 20 21 22 23 24 25 26 27 28 29 30 31 32 33 34 35 36 37 38 39 40 41 42 43 44 45 46 47 48 49 50
000
ASUS43 KLOT 251900
RWRIL

ILLINOIS REGIONAL WEATHER ROUNDUP
NATIONAL WEATHER SERVICE CHICAGO/ROMEOVILLE IL
200 PM CDT FRI JUL 25 2014

NOTE: "FAIR" INDICATES FEW OR NO CLOUDS BELOW 12,000 FEET WITH NO
SIGNIFICANT WEATHER AND/OR OBSTRUCTIONS TO VISIBILITY.

* THESE STATIONS ARE NOT UNDER NWS QUALITY CONTROL. THEY ALSO MAY NOT
  REPORT WEATHER SUCH AS PRECIPITATION OR FOG.

ILZ001-002-007-009-015-016-024-252000-
NORTHWEST ILLINOIS

CITY           SKY/WX    TMP DP  RH WIND       PRES   REMARKS
MOLINE         PTSUNNY   70  64  81 S9G20     29.86S
STERLING*      CLOUDY    72  61  68 SW7G17    29.94R
$$

ILZ003-004-008-010-011-017-018-252000-
NORTH CENTRAL ILLINOIS

CITY           SKY/WX    TMP DP  RH WIND       PRES   REMARKS
ROCKFORD       CLOUDY    69  59  70 SW9       29.98R
FREEPORT*      CLOUDY    64  59  85 SW8       29.97S
$$

ILZ005-006-012>014-019>023-252000-
NORTHEAST ILLINOIS

CITY           SKY/WX    TMP DP  RH WIND       PRES   REMARKS
CHICAGO-OHARE  CLOUDY    73  56  54 S14       29.89F
CHICAGO-MIDWAY CLOUDY    75  58  55 S15G24    29.89F
AURORA         CLOUDY    72  60  66 SW12G23   29.97R
LANSING*       CLOUDY    74  58  56 S17       29.94F
WAUKEGAN       CLOUDY    71  54  54 S8        29.93F
DUPAGE AIRPORT CLOUDY    71  59  65 SW13      29.96R
WHEELING       CLOUDY    75  55  49 S13       29.92F
NORTHERLY ISL    N/A     72  55  55 S16         N/A
$$

LMZ740>746-252000-
SOUTHERN LAKE MICHIGAN

STATION/POSITION SKY/WX   TEMP    WIND        PRES    VSBY  WAVE
                          AIR SEA DIR/SP/G                  HT/PER
                          (F)     (DEG/KT/KT) (MB)    (MI)  (FT/S)
SOUTHERN BUOY              63 61  180/ 12/ 14 1015.1F         1/ 3
WAUKEGAN HARBOR            71     190/  9/ 15   N/A
HARRISON CRIB              70     200/ 21/ 25   N/A
BURNHAM HARBOR             72     220/ 14/ 14   N/A
CALUMET HARBOR             72     210/ 13/ 17 1013.1F
BURNS HARBOR               73     200/ 16/ 21 1015.2F
MICHIGAN CITY              72     190/ 14/ 18   N/A
MICHIGAN CITY 6N           70 68  200/ 12/ 16   N/A           2/ 2
ST. JOSEPH                 68 64  160/  4/  6   N/A           1/ 3
$$

ILZ025>027-034>036-040-047-049-050-058-095>099-252000-
WEST-CENTRAL ILLINOIS

CITY           SKY/WX    TMP DP  RH WIND       PRES   REMARKS
QUINCY         CLOUDY    67  62  84 S22       29.93F
GALESBURG*     TSTM      66  63  90 S20       29.89F
MACOMB*        CLOUDY    64  64 100 S24G30    29.92F
$$

ILZ028>032-037-038-041>044-048-051>054-059>061-252000-
CENTRAL ILLINOIS

CITY           SKY/WX    TMP DP  RH WIND       PRES   REMARKS
PONTIAC        CLOUDY    70  63  78 S15G24    29.94R
DECATUR        CLOUDY    65  64  97 S18       29.95F
PEORIA         CLOUDY    66  61  84 SW14      29.95S
SPRINGFIELD    LGT RAIN  64  61  90 S22G39    29.88F FOG
TAYLORVILLE    NOT AVBL
$$

ILZ033-039-045-046-055>057-062-063-252000-
EAST-CENTRAL ILLINOIS

CITY           SKY/WX    TMP DP  RH WIND       PRES   REMARKS
CHAMPAIGN      CLOUDY    65  64  97 S10G20    29.99F
MATTOON        LGT RAIN  67  62  84 S6        30.08F
$$

ILZ079-100>102-252000-
SOUTHWEST ILLINOIS

CITY           SKY/WX    TMP DP  RH WIND       PRES   REMARKS
ALTON          CLOUDY    68  68 100 E7        30.06R
CAHOKIA*       LGT RAIN  73  63  70 CALM      30.04S
$$

ILZ064>066-069>071-074>076-080>082-084>086-088>090-092>094-252000-
SOUTH-CENTRAL ILLINOIS

CITY           SKY/WX    TMP DP  RH WIND       PRES   REMARKS
CARBONDALE     CLOUDY    77  58  51 SW6       30.05F
MARION         PTSUNNY   79  59  50 SW6       30.06F HX  80
MT. VERNON     CLOUDY    75  57  53 CALM      30.08S
SALEM*         CLOUDY    76  62  62 CALM      30.09R
$$

ILZ067-068-072-073-078-083-087-091-252000-
SOUTHEAST ILLINOIS

CITY           SKY/WX    TMP DP  RH WIND       PRES   REMARKS
LAWRENCEVILLE  CLOUDY    75  58  55 NW6       30.10R
HARRISBURG*    CLOUDY    77  57  50 CALM      30.07S
ROBINSON*      CLOUDY    74  63  66 W3        30.10R
$$

ABBREVIATIONS USED IN REMARKS
   TC - TEMPERATURE IN CELSIUS
  WCI - WIND CHILL INDEX
   HX - HEAT INDEX
  VSB - VISIBILITY
$$



USA.gov is the U.S. government's official web portal to all federal, state and local government web resources and services.